MDT,Max TemperatureF,Mean TemperatureF,Min TemperatureF,Max Dew PointF,MeanDew PointF,Min DewpointF,Max Humidity, Mean Humidity, Min Humidity, Max Sea Level PressureIn, Mean Sea Level PressureIn, Min Sea Level PressureIn, Max VisibilityMiles, Mean VisibilityMiles, Min VisibilityMiles, Max Wind SpeedMPH, Mean Wind SpeedMPH, Max Gust SpeedMPH,PrecipitationIn, CloudCover, Events, WindDirDegrees
2013-10-1,53,45,37,39,35,29,89,65,41,30.09,29.97,29.88,10,10,10,16,9,21,0.06,6,Rain,201
2013-10-2,54,43,31,36,33,30,92,68,44,30.20,30.12,30.04,10,10,10,14,4,17,0.00,4,,4
2013-10-3,52,39,26,29,27,25,92,64,36,30.46,30.25,30.04,10,10,10,18,8,22,0.00,3,,22
2013-10-4,53,37,21,32,26,20,100,70,39,30.59,30.52,30.46,10,10,10,14,4,17,0.00,0,,194
2013-10-5,57,41,24,34,28,22,100,65,30,30.50,30.43,30.35,10,10,10,14,3,16,0.00,1,,167
2013-10-6,65,47,28,38,32,27,100,66,31,30.36,30.22,30.02,10,10,8,9,1,14,0.00,0,,245
2013-10-7,63,43,23,42,29,22,100,66,32,30.01,29.91,29.80,10,5,0,35,5,43,0.02,3,Fog-Rain,212
2013-10-8,47,40,33,43,37,32,100,80,60,30.05,29.93,29.84,10,8,1,17,6,23,0.16,5,Rain,192
2013-10-9,57,42,27,38,32,27,100,69,38,30.14,30.03,29.87,10,6,0,10,3,13,0.00,1,Fog,326
2013-10-10,47,37,27,40,31,27,100,86,71,29.95,29.87,29.83,10,5,0,12,3,20,T,7,Fog-Rain,172
2013-10-11,54,41,27,38,32,27,100,71,41,30.12,30.05,29.95,10,5,0,10,1,16,0.00,6,Fog,196
2013-10-12,51,39,26,35,32,26,100,75,50,30.20,30.13,30.09,10,10,10,9,1,12,0.00,6,,11
2013-10-13,54,39,23,34,29,22,100,71,41,30.29,30.24,30.20,10,10,8,10,3,13,0.00,4,,1
2013-10-14,57,40,23,33,29,23,92,62,32,30.46,30.37,30.28,10,10,10,14,3,18,0.00,4,,331
2013-10-15,52,36,19,31,26,18,100,71,41,30.50,30.38,30.24,10,10,8,13,2,20,0.00,0,,145
2013-10-16,47,39,31,38,34,28,100,85,70,30.25,30.21,30.16,10,9,4,12,0,22,0.08,7,Rain,70
2013-10-17,52,40,28,38,33,28,100,77,54,30.32,30.24,30.17,10,6,0,6,1,10,0.00,7,Fog,285
2013-10-18,54,40,26,36,30,26,100,75,50,30.35,30.27,30.19,10,8,2,12,1,14,0.00,4,,202
2013-10-19,51,39,26,38,29,25,100,78,56,30.20,30.14,30.08,10,5,0,6,1,8,0.00,3,Fog,320
2013-10-20,57,42,27,37,31,25,100,72,43,30.21,30.16,30.12,10,8,0,9,1,15,0.00,1,Fog,247
2013-10-21,59,42,24,40,29,24,100,76,51,30.32,30.22,30.16,10,4,0,10,2,13,0.00,3,Fog,356
2013-10-22,59,42,25,41,30,23,100,76,51,30.33,30.23,30.20,10,3,0,7,1,9,0.00,2,Fog,29
2013-10-23,61,43,25,41,30,24,100,73,46,30.29,30.21,30.17,10,5,0,7,1,10,0.00,2,Fog,289
2013-10-24,59,43,26,40,30,25,100,74,47,30.29,30.20,30.14,10,3,0,9,2,12,0.00,2,Fog,353
2013-10-25,56,40,24,41,29,23,100,78,55,30.37,30.25,30.15,10,2,0,7,1,9,0.00,4,Fog,162
2013-10-26,40,35,29,38,33,28,100,93,85,30.43,30.31,30.11,10,2,0,7,1,7,0.00,8,Fog,261
2013-10-27,49,41,33,37,30,14,100,69,37,30.26,30.00,29.88,10,4,0,38,14,48,0.00,6,Fog,5
2013-10-28,38,33,27,19,13,11,56,44,32,30.28,30.21,30.13,10,10,10,29,17,37,0.00,5,,42
2013-10-29,42,29,16,21,15,12,91,65,38,30.12,30.08,30.02,10,10,10,16,4,21,0.00,0,,27
2013-10-30,45,29,13,27,20,12,96,69,41,30.14,30.08,30.05,10,10,10,12,2,14,0.00,2,,143
2013-10-31,43,36,29,36,31,25,96,86,75,30.17,30.06,29.98,10,10,7,12,3,17,0.01,8,Rain-Snow,231